Regional Weather Roundup
Issued by NWS

Home | Current Version | Previous Version | Graphics & Text | Print | Product List | Glossary On
Versions: 1 2 3 4 5 6 7 8 9 10 11 12 13 14 15 16 17 18 19 20 21 22 23 24 25 26 27 28 29 30 31 32 33 34 35 36 37 38 39 40 41 42 43 44 45 46 47 48 49 50
000
ASUS45 KTFX 030610
RWRMT
MONTANA REGIONAL WEATHER ROUNDUP
NATIONAL WEATHER SERVICE GREAT FALLS MT
1200 AM MDT TUE MAY 03 2016

NOTE: "FAIR" INDICATES FEW OR NO CLOUDS BELOW 12000 FEET WITH NO
SIGNIFICANT WEATHER AND/OR OBSTRUCTIONS TO VISIBILITY.

MTZ001>007-043-030700-
WEST OF THE DIVIDE

CITY           SKY/WX    TMP DP  RH WIND       PRES   REMARKS
KALISPELL      CLEAR     47  42  83 CALM      30.08S
MISSOULA       CLEAR     50  38  63 N5        30.11R
BUTTE          CLEAR     43  28  55 S3        30.20S
MULLAN PASS    CLEAR     53  31  42 NW5       30.20F
$$

MTZ008-052>055-030700-
SOUTHWEST MONTANA

CITY           SKY/WX    TMP DP  RH WIND       PRES   REMARKS
BOZEMAN        CLEAR     41  30  65 SE10      30.16S
DILLON         CLEAR     46  28  49 CALM      30.17R
ENNIS          CLEAR     39  23  52 E5        30.23S
$$

MTZ009-010-012-014-046-048-049-054-030700-
EAST SLOPES AND CENTRAL MONTANA

CITY           SKY/WX    TMP DP  RH WIND       PRES   REMARKS
CUT BANK       CLEAR     54  36  50 SE9       30.11S
GREAT FALLS    CLEAR     52  34  50 E6        30.10F
MALMSTROM AFB  CLEAR     44  37  75 SE3       30.10F
HELENA         CLEAR     54  23  30 CALM      30.11S
$$

MTZ011-013-016-021-045-047-050-051-030700-
NORTH CENTRAL MONTANA

CITY           SKY/WX    TMP DP  RH WIND       PRES   REMARKS
HAVRE          CLEAR     48  42  80 W6        30.07S
LEWISTOWN      CLEAR     44  34  67 SE7       30.15S
N BAR RANCH      N/A     46  32  57 W12G17    30.18F
$$

MTZ017>020-022>027-061-062-030700-
NORTHEAST MONTANA

CITY           SKY/WX    TMP DP  RH WIND       PRES   REMARKS
GLASGOW        CLEAR     57  36  45 NE5       30.04R
JORDAN           N/A     50  43  77 W9        30.06S
SIDNEY         CLEAR     45  34  65 CALM      30.03S
WOLF POINT     CLEAR     47  39  74 CALM      30.03S
$$

MTZ028>42-056>058-030700-
SOUTHCENTRAL AND SOUTHEAST MONTANA

CITY           SKY/WX    TMP DP  RH WIND       PRES   REMARKS
BAKER          CLOUDY    46  34  62 SE5       30.07S
BILLINGS       CLEAR     57  35  43 SE8       30.14S
LIVINGSTON     CLEAR     48  30  49 CALM      30.16R
MILES CITY     PTCLDY    57  40  52 NW7       30.06R
$$

REGIONAL REPORTS...DAKOTAS

CITY           SKY/WX    TMP DP  RH WIND       PRES   REMARKS
WILLISTON      CLEAR     41  35  79 CALM      30.02S
MINOT          MOCLDY    55  37  50 SW7       29.98S
DICKINSON      PTCLDY    42  31  64 SW3       30.01F
BEACH            N/A     39  36  87 SW6       30.08S
CROSBY           N/A     41  36  81 SW6       30.03R
TIOGA            N/A     43  34  70 W3        30.06S
WATFORD CITY     N/A     45  36  70 SW3       30.02S
BISMARCK       CLOUDY    45  42  89 CALM      30.02F
GRAND FORKS    CLOUDY    53  38  56 W10       29.94F
FARGO          CLOUDY    50  35  56 W6        29.97S
BUFFALO SD       N/A     50  32  50 W6        30.00S
RAPID CITY     CLEAR     43  36  76 N9        30.06R
$$

REGIONAL REPORTS...WYOMING/IDAHO/WASHINGTON

CITY           SKY/WX    TMP DP  RH WIND       PRES   REMARKS
GILLETTE       CLEAR     44  35  70 W13       30.12S
SHERIDAN       CLEAR     46  35  65 CALM      30.15F
BUFFALO WY       N/A    N/A N/A N/A MISG      30.18S
CODY           CLEAR     48  30  49 SW6       30.18F
YELLOWSTONE LA   N/A     31  24  75 CALM      30.32R
IDAHO FALLS    CLOUDY    49  27  42 CALM      30.19S
SALMON         CLEAR     46  32  57 CALM      30.12R
BOISE          CLEAR     56  32  40 SE6       30.09F
SPOKANE        CLEAR     60  41  49 SW6       30.06R
$$

REGIONAL REPORTS...ALBERTA

CITY           SKY/WX    TMP DP  RH WIND       PRES   REMARKS
EDMONTON       CLEAR     61  36  39 S7        29.96S
CALGARY        PTCLDY    55  32  41 E6        30.03S
LETHBRIDGE     CLEAR     50  36  57 S18       30.04S
MEDICINE HAT   CLEAR     52  43  71 SW10      30.04S
WATERTON GATE    N/A     52  30  43 S13         N/A
MILK RIVER       N/A     50  37  62 S6          N/A
$$

REGIONAL REPORTS...SASKATCHEWAN

CITY           SKY/WX    TMP DP  RH WIND       PRES   REMARKS
SWIFT CURRENT  CLEAR     52  34  50 S10       30.04S
REGINA         CLEAR     50  28  43 S6        30.00F
SASKATOON      CLEAR     52  41  66 W6        30.01S
CYPRESS HILLS    N/A     55  32  41 SW2         N/A
VAL MARIE        N/A     43  36  75 NE3         N/A
ROCKGLEN         N/A     52  30  43 E1          N/A
ASSINIBOIA       N/A     55  39  54 S6          N/A
$$



USA.gov is the U.S. government's official web portal to all federal, state and local government web resources and services.